Regional Weather Roundup
Issued by NWS Boston, MA

Home | Current Version | Previous Version | Text Only | Print | Product List | Glossary On
Versions: 1 2 3 4 5 6 7 8 9 10 11 12 13 14 15 16 17 18 19 20 21 22 23 24 25 26 27 28 29 30 31 32 33 34 35 36 37 38 39 40 41 42 43 44 45 46 47 48 49 50
000
ASUS41 KBOX 290610
RWRBOX

REGIONAL WEATHER ROUNDUP
NATIONAL WEATHER SERVICE TAUNTON MA
200 AM EDT WED JUL 29 2015

NOTE:  "FAIR" INDICATES FEW OR NO CLOUDS BELOW 12,000 FEET WITH NO
SIGNIFICANT WEATHER AND/OR OBSTRUCTIONS TO VISIBILITY.  THE FOLLOWING
OBSERVATION LOCATIONS DO NOT REPORT PRESENT WEATHER...PROVINCETOWN...
SMITHFIELD...BLOCK ISLAND...KEENE...AND OXFORD.

MAZALL-290700-
EASTERN MASSACHUSETTS

CITY           SKY/WX    TMP DP  RH WIND       PRES   REMARKS
BOSTON         CLEAR     71  68  90 S5        29.94F
6HR MIN TEMP:  71; 6HR MAX TEMP:  77;

BEVERLY        CLEAR     68  65  90 CALM      29.93F
LAWRENCE       CLEAR     70  66  87 S3        29.96S
BEDFORD        CLEAR     67  65  93 CALM      29.93F
BLUE HILL        N/A     71  68  90 SW7       29.95F
NORWOOD        FOG       64  63  96 CALM      29.94F VSB 1/4
MARSHFIELD     CLEAR     70  70 100 W5        29.95F
PLYMOUTH       CLEAR     65  65 100 CALM      29.95F
TAUNTON        CLEAR     63  62  97 CALM      29.94S FOG
NEW BEDFORD    PTCLDY    65  64  97 CALM      29.94S FOG
$$

MAZALL-290700-
CAPE COD AND THE ISLANDS

CITY           SKY/WX    TMP DP  RH WIND       PRES   REMARKS
FALMOUTH       PTCLDY    66  66 100 CALM      29.95S FOG
HYANNIS        CLEAR     69  67  93 SW3       29.93F
CHATHAM        CLEAR     71  70  96 SW3       29.95F FOG
PROVINCETOWN   CLEAR     70  64  83 S5        29.94F
NANTUCKET      FOG       72  71  97 W8        29.95F VSB 1/2
MARTHAS VNYRD    N/A     70  69  97 SW3       29.95S VSB 1/4
$$

MAZALL-290700-
CENTRAL AND WESTERN MASSACHUSETTS

CITY           SKY/WX    TMP DP  RH WIND       PRES   REMARKS
WORCESTER      CLEAR     72  63  73 W9        29.99F
6HR MIN TEMP:  68; 6HR MAX TEMP:  76;

FITCHBURG      CLEAR     68  65  90 N6        29.96F
ORANGE         FOG       66  66 100 CALM      29.98F VSB 3/4
SPRINGFIELD    NOT AVBL
WESTFIELD      CLEAR     67  66  97 CALM      29.97F FOG
NORTH ADAMS    CLEAR     64  62  93 CALM      30.01S
PITTSFIELD     CLEAR     64  62  93 CALM      30.02S
$$

RIZALL-290700-
RHODE ISLAND

CITY           SKY/WX    TMP DP  RH WIND       PRES   REMARKS
PROVIDENCE     CLEAR     70  68  93 SW5       29.95F
6HR MIN TEMP:  70; 6HR MAX TEMP:  76;

NEWPORT        CLEAR     67  66  97 CALM      29.95F FOG
BLOCK ISLAND   PTCLDY    73  72  94 W10       29.97S
SMITHFIELD     CLEAR     64  64 100 CALM      29.96S
WESTERLY       CLEAR     68  66  93 CALM      29.96F
$$

CTZALL-290700-
CONNECTICUT

CITY           SKY/WX    TMP DP  RH WIND       PRES   REMARKS
BRADLEY INTL   PTCLDY    73  65  75 S3        29.96F
6HR MIN TEMP:  71; 6HR MAX TEMP:  84;

HARTFORD       CLEAR     72  67  84 CALM      29.96F
BRIDGEPORT     CLEAR     78  70  76 CALM      29.96F
DANBURY        CLEAR     68  64  87 CALM      30.00F
GROTON         CLEAR     71  68  90 CALM      29.95F
NEW HAVEN      CLEAR     76  70  82 CALM      29.97S
CHESTER        NOT AVBL
MERIDEN        CLEAR     69  65  86 CALM      29.97F
WILLIMANTIC    CLEAR     70  68  93 CALM      29.97F
OXFORD         CLEAR     72  63  73 CALM      30.01F
$$

MEZ002-015-021-024-NHZ003-005-008-011-012-014-VTZ005-008-290700-
NORTHERN NEW ENGLAND

CITY           SKY/WX    TMP DP  RH WIND       PRES   REMARKS
PORTLAND ME    CLEAR     65  64  97 W3        29.93F
6HR MIN TEMP:  65; 6HR MAX TEMP:  71;

BANGOR ME      FOG       61  60  97 CALM      29.91F VSB 1/4
CONCORD NH     CLEAR     67  64  90 CALM      29.96S
MANCHESTER NH  CLEAR     70  66  87 CALM      29.94S
NASHUA NH      NOT AVBL
PORTSMOUTH NH  NOT AVBL
JAFFREY NH     CLEAR     64  63  96 CALM      30.00F
KEENE NH       CLEAR     64  59  82 CALM      29.99S
BURLINGTON VT  PTCLDY    70  66  87 CALM      29.96F
MT. WASHINGTON FOG       54  54 100 NW21        N/A  VSB 0
$$

NYZ052-076-290700-
EASTERN NEW YORK

CITY           SKY/WX    TMP DP  RH WIND       PRES   REMARKS
ALBANY         PTCLDY    75  62  64 S3        29.97S
6HR MIN TEMP:  74; 6HR MAX TEMP:  81;

NEW YORK CITY  CLEAR     82  69  64 CALM      29.96F
6HR MIN TEMP:  82; 6HR MAX TEMP:  86;

$$

ANZALL-290700-
MARINE OBSERVATIONS

STATION/POSITION TIME  TEMP    WIND        PRES    VSBY  WAVE
                       AIR SEA DIR/SP/G                  HT/PER
                 (UTC) (F)     (DEG/KT/KT) (MB)    (MI)  (FT/S)
BOSTON BUOY      0550   71 70  240/  6/  6 1013.8F         1/ 9
BUZZARDS BAY     0500          210/  7/  7 1015.1F
NANTUCKET SOUND  0550   71 72  240/ 10/ 10 1013.8F         1
MASS BAY-STELLWA 0504   72 69  240/  6/  6   N/A    1 7/8  2/11
ISLE OF SHOALS   0500   71     280/  3/  3 1013.4F
S OF BLOCK IS    0508      72                N/A           2/11
$$

......................KEY.........................
  SKY/WX - SKY CONDITION/PRESENT WEATHER
  TMP    - TEMPERATURE IN FAHRENHEIT
  DWPT   - DEWPOINT IN FAHRENHEIT
  RH     - RELATIVE HUMIDITY IN PERCENT
  WIND   - DIRECTION AND SPEED IN MPH
  PRES   - MEAN SEA LEVEL PRESSURE IN INCHES OF HG
  WCI    - WIND CHILL INDEX
  VSB    - VISIBILITY IN MILES
  HX     - HEAT INDEX
  TC     - TEMPERATURE IN CELSIUS
  VRB    - VARIABLE WIND DIRECTION
  N/A    - NOT AVAILABLE



USA.gov is the U.S. government's official web portal to all federal, state and local government web resources and services.